Wind_Speed
33 34 35 36 38 39 40 39 40 40 40 40 41 40 41 42 39 40 43 31 31 33 32 29 28 22 21 24 22 21 29 31 25 24 24 19 19 16 13 14 18 16 10 15 17
32 33 35 36 37 38 40 41 41 42 42 42 42 42 42 44 44 47 36 36 34 33 36 31 30 25 26 25 27 30 36 42 45 39 23 21 21 26 18 24 23 23 28 22 13
28 29 30 32 34 35 36 39 41 42 43 44 43 43 44 46 44 45 42 41 38 37 35 34 33 31 29 28 29 33 46 41 40 31 21 26 29 27 26 27 22 25 25 24 27
18 20 21 24 26 29 31 33 36 40 42 43 43 44 44 46 40 40 42 40 40 39 39 37 37 37 36 35 31 37 41 37 36 32 27 30 28 34 33 32 33 31 28 32 33
18 18 18 19 20 22 24 26 28 30 34 39 41 43 44 50 51 42 36 29 30 31 37 39 39 39 43 39 32 43 41 36 36 32 34 29 30 34 38 35 35 40 39 36 36
20 20 21 22 23 23 22 23 24 26 28 29 30 36 44 53 44 38 38 41 36 29 32 32 37 36 43 45 42 41 36 37 34 36 37 38 40 40 42 39 43 42 42 40 42
24 25 25 26 25 26 26 26 26 26 27 29 29 30 40 43 34 36 34 39 44 41 37 34 25 26 38 42 46 42 41 40 45 43 41 32 49 51 45 43 44 43 43 40 41
24 26 28 30 31 31 28 26 27 28 27 28 29 32 45 25 28 28 33 37 37 35 42 38 31 32 29 27 36 42 38 46 50 45 46 36 71 52 45 46 46 49 48 44 42
25 26 28 30 32 32 32 31 27 25 24 26 26 32 38 16 16 17 23 34 39 37 33 37 38 38 34 31 28 36 46 47 52 49 41 35 61 48 49 47 47 46 43 41 42
29 31 31 29 29 29 29 27 27 27 27 26 23 24 13 1 8 3 5 7 12 27 36 27 27 39 38 39 44 37 40 55 60 35 33 42 54 52 43 38 43 44 42 41 41
27 25 23 25 23 25 25 24 25 25 16 22 24 28 13 7 10 9 10 7 14 9 23 28 29 48 67 57 48 34 32 41 45 42 39 49 48 47 46 39 40 41 43 41 41
21 22 23 26 26 28 27 27 15 24 39 26 33 38 40 28 30 24 21 23 19 19 15 18 44 58 45 47 42 39 39 43 35 32 30 42 42 43 44 42 40 37 39 37 34
22 24 25 28 28 28 27 18 21 30 36 17 21 21 17 27 25 19 15 23 27 25 22 28 41 34 40 34 32 42 48 47 39 25 34 37 40 42 44 45 41 41 38 40 43
23 25 27 28 29 29 26 29 25 24 22 15 19 12 15 4 21 13 20 24 25 28 24 30 32 34 31 39 36 44 35 39 33 27 37 31 28 44 45 44 39 38 34 35 35
22 24 26 27 29 29 28 32 22 19 5 19 27 19 11 5 12 6 13 19 27 24 23 42 19 24 31 37 33 46 32 33 27 38 39 39 28 49 30 33 34 34 30 30 32
21 23 22 23 26 30 29 28 24 8 4 19 20 20 20 19 13 13 6 11 13 18 27 35 32 27 30 27 32 31 31 32 34 36 19 40 34 56 40 39 35 33 30 29 31
23 23 21 17 24 28 28 26 9 4 21 19 27 24 21 21 12 15 15 15 15 14 24 24 25 25 31 31 27 31 33 12 15 15 18 33 27 40 37 35 34 29 23 29 28
23 22 20 17 21 25 27 20 2 12 17 18 24 17 16 26 22 16 15 15 13 20 25 22 17 25 18 30 29 28 35 19 13 12 19 30 14 31 36 33 35 32 21 23 17
24 22 18 21 27 24 23 13 6 19 18 25 26 19 23 21 22 23 19 14 12 10 10 8 15 16 19 17 29 35 36 45 35 23 16 18 35 38 32 28 21 19 22 24 18
25 24 12 18 27 21 20 16 21 31 22 21 18 20 24 22 18 21 20 10 9 7 9 7 18 22 26 22 27 37 35 22 34 13 13 12 26 31 30 19 20 19 20 20 19
25 15 18 23 29 20 21 19 25 29 22 23 19 18 18 19 20 22 14 17 16 9 9 8 13 29 25 15 17 25 40 34 26 27 11 6 19 29 34 22 12 26 24 20 17
20 10 18 20 17 20 26 22 25 23 20 23 25 22 19 24 24 18 15 13 12 15 13 14 13 23 21 29 26 26 29 36 24 30 30 20 21 6 8 11 17 23 24 20 18
17 13 16 19 17 24 25 23 13 22 21 19 23 20 20 23 19 14 19 14 15 11 5 11 6 11 13 18 23 22 26 34 28 26 38 16 28 24 10 12 13 23 27 24 19
20 10 17 16 13 21 23 20 25 20 20 20 25 14 21 26 16 21 25 14 13 16 10 10 12 14 15 14 16 20 15 20 26 31 26 33 40 35 24 19 16 17 29 21 15
22 14 20 25 15 18 22 25 22 24 23 24 18 18 23 26 22 21 20 14 19 8 14 7 15 14 16 22 21 28 25 19 19 21 30 37 22 24 19 20 20 22 19 17 16
24 25 25 24 17 19 23 29 31 33 24 24 22 27 33 23 22 26 22 23 21 19 10 11 11 19 26 12 13 25 30 24 23 29 28 39 35 29 21 19 20 19 18 20 22
23 22 21 25 27 19 22 24 29 29 21 23 21 27 30 26 32 27 28 29 27 26 24 20 23 16 9 8 6 14 28 24 28 30 31 37 42 20 20 19 25 22 18 20 20
Wind_Direction
282 281 279 280 280 280 278 276 274 272 270 268 267 265 261 257 256 254 253 258 254 250 250 246 247 246 253 237 225 226 234 239 239 232 241 250 283 283 287 289 275 274 277 264 271
284 283 283 281 278 277 278 278 276 274 273 270 267 265 262 259 255 253 258 249 249 249 246 245 244 240 240 250 234 227 229 242 252 252 241 261 251 269 285 302 265 300 281 268 267
288 286 284 281 279 277 275 274 275 275 273 270 269 267 266 265 264 264 256 248 243 244 245 242 239 234 236 238 240 236 241 243 244 236 229 254 264 262 278 285 278 288 306 310 282
311 310 308 304 300 295 290 281 274 272 272 271 270 268 265 262 260 258 259 256 246 241 243 240 234 230 226 233 231 239 246 245 250 247 236 245 255 259 259 271 270 276 278 294 275
322 319 316 312 309 308 306 302 297 287 277 271 270 268 264 263 254 249 253 253 250 244 238 241 241 235 233 232 234 241 250 249 249 252 254 250 258 266 267 271 279 280 275 282 287
334 329 323 318 312 308 303 300 299 298 296 290 280 270 265 259 265 258 251 244 240 237 236 236 239 237 242 234 228 239 251 255 254 246 250 259 266 265 263 267 271 274 278 275 278
351 346 339 332 327 320 314 306 299 292 291 290 288 282 266 266 268 257 251 251 245 228 231 231 230 228 241 241 241 235 246 250 249 249 252 260 267 258 261 266 270 276 282 279 281
346 341 336 331 328 325 322 316 309 301 292 285 283 281 274 284 264 257 249 243 243 250 238 223 197 218 231 247 247 241 238 249 241 244 248 250 260 261 266 270 271 270 269 270 275
350 346 344 338 333 326 323 321 315 307 305 294 291 281 288 287 275 255 241 242 238 231 224 228 207 208 213 225 238 237 239 240 246 237 244 245 260 265 264 267 276 279 278 271 275
359 355 350 342 339 333 331 329 315 307 306 301 291 276 282 58 16 265 261 210 260 234 223 213 219 219 219 210 223 223 229 236 242 245 252 252 257 265 269 274 267 272 274 272 274
1 356 351 350 349 343 344 334 316 323 318 296 280 272 235 205 168 196 289 307 294 229 227 216 208 216 225 222 226 231 236 247 252 247 249 253 258 261 266 266 265 270 269 277 273
4 3 3 2 354 342 338 338 338 318 307 303 276 271 259 248 254 231 212 237 244 247 233 221 223 232 231 233 233 236 241 246 255 249 251 259 261 267 267 268 267 276 271 270 277
5 6 6 360 351 343 336 320 300 304 303 335 335 344 296 242 259 260 247 242 243 243 234 234 236 240 235 235 233 240 237 245 253 257 250 264 274 272 260 261 264 267 267 266 269
2 1 3 360 353 347 343 331 319 309 314 331 15 25 16 303 249 253 256 244 243 244 238 248 243 243 237 232 229 238 237 245 253 257 256 261 273 271 261 265 270 271 274 264 272
359 358 358 357 357 353 346 346 342 334 311 359 8 356 355 27 284 192 227 224 235 236 231 239 240 242 246 239 235 242 245 244 250 248 258 259 259 264 266 260 262 264 264 266 271
356 352 354 353 351 357 349 343 349 4 323 1 354 342 349 345 316 282 213 220 228 233 238 251 259 255 250 250 243 240 244 246 251 259 270 251 239 263 255 262 269 271 271 271 279
355 350 348 345 352 358 349 347 5 29 340 342 349 344 350 344 310 309 295 250 234 241 246 256 259 257 248 256 237 235 241 247 236 236 239 242 243 245 265 263 265 271 268 287 273
348 347 340 348 356 349 346 356 317 336 336 334 339 346 4 346 339 298 310 291 268 273 266 253 272 245 247 247 250 244 232 219 217 214 249 252 248 251 261 266 261 264 258 262 261
346 344 342 1 359 343 347 359 316 336 325 326 327 333 339 355 349 349 327 297 301 294 269 314 266 263 248 246 235 241 245 230 241 258 249 250 245 261 271 262 253 251 247 246 252
349 346 9 349 335 344 350 336 340 331 314 320 305 325 329 338 342 351 340 325 348 333 317 295 296 285 252 265 242 230 227 238 231 233 256 235 256 263 261 240 225 229 206 218 225
349 350 3 343 334 342 352 335 326 328 352 329 343 331 319 330 325 328 310 299 278 282 286 294 280 278 289 278 259 230 240 241 243 229 235 246 265 269 263 219 225 209 217 215 227
355 352 333 340 338 326 334 332 321 341 327 329 328 334 325 327 320 325 321 324 339 294 293 276 281 281 271 264 250 256 255 237 237 221 238 251 257 290 93 184 183 193 196 211 217
3 360 353 334 333 317 325 326 344 329 351 340 330 331 320 311 317 311 311 319 317 269 316 305 281 307 303 265 252 252 245 230 234 247 230 241 241 226 246 185 168 187 191 202 210
355 4 307 311 304 311 317 334 334 346 336 321 314 320 326 326 323 309 304 304 280 260 296 299 284 253 267 264 314 296 254 219 233 234 226 236 247 252 257 203 168 175 184 191 215
351 338 324 324 346 337 327 321 316 327 327 328 330 326 313 303 303 309 308 301 310 243 281 292 291 278 285 278 282 281 280 251 248 235 228 231 241 233 189 180 174 180 188 206 202
348 341 337 351 350 343 333 330 332 329 326 327 321 316 316 300 296 300 299 289 284 303 296 287 296 315 305 272 254 274 270 266 246 222 232 226 234 217 198 190 169 182 191 188 166
340 337 335 343 344 336 332 325 329 330 325 319 318 316 325 324 310 300 288 279 273 271 268 271 284 305 282 175 180 270 243 234 230 222 224 233 229 205 168 166 160 170 181 177 172
Height
3117 3116 3115 3113 3111 3110 3109 3109 3109 3110 3110 3111 3112 3112 3113 3115 3117 3117 3119 3132 3130 3132 3133 3136 3138 3142 3143 3144 3145 3149 3144 3143 3148 3147 3146 3147 3150 3153 3156 3156 3157 3156 3159 3159 3160
3110 3109 3107 3106 3106 3104 3102 3100 3101 3100 3100 3101 3102 3103 3104 3105 3108 3107 3120 3120 3122 3123 3125 3129 3132 3135 3135 3139 3139 3139 3134 3134 3142 3144 3143 3147 3152 3149 3151 3151 3154 3153 3153 3155 3154
3105 3103 3101 3099 3097 3096 3096 3095 3093 3091 3090 3091 3091 3092 3093 3093 3097 3098 3104 3109 3113 3116 3119 3122 3125 3127 3127 3131 3132 3132 3121 3131 3134 3139 3140 3142 3143 3146 3146 3146 3150 3150 3151 3152 3150
3100 3098 3095 3092 3090 3087 3086 3085 3084 3083 3081 3081 3081 3082 3084 3085 3091 3088 3091 3097 3103 3107 3110 3111 3114 3117 3117 3118 3125 3126 3122 3125 3130 3135 3136 3136 3139 3138 3139 3141 3143 3144 3145 3146 3147
3097 3095 3092 3090 3087 3084 3081 3078 3076 3074 3073 3072 3072 3071 3073 3071 3074 3082 3083 3087 3091 3095 3099 3102 3105 3111 3108 3112 3120 3114 3118 3123 3125 3128 3130 3133 3131 3131 3131 3135 3137 3137 3138 3137 3138
3093 3091 3088 3085 3083 3081 3079 3076 3072 3069 3066 3064 3063 3062 3061 3059 3067 3074 3072 3074 3082 3086 3090 3093 3096 3104 3103 3105 3109 3113 3116 3116 3121 3121 3124 3127 3125 3127 3127 3131 3129 3130 3130 3130 3129
3089 3086 3083 3080 3078 3075 3072 3070 3068 3066 3063 3058 3055 3053 3048 3050 3058 3059 3061 3065 3068 3071 3079 3086 3091 3095 3095 3099 3103 3105 3108 3110 3109 3114 3116 3125 3112 3112 3120 3123 3121 3123 3123 3122 3121
3088 3084 3080 3076 3072 3069 3067 3064 3061 3057 3056 3054 3050 3045 3033 3049 3046 3049 3053 3055 3058 3064 3069 3074 3079 3083 3086 3091 3094 3100 3103 3095 3095 3104 3107 3124 3078 3108 3115 3116 3114 3114 3113 3113 3113
3085 3081 3077 3073 3069 3064 3061 3058 3054 3050 3048 3045 3045 3039 3032 3038 3039 3040 3042 3044 3049 3054 3061 3068 3073 3076 3081 3083 3087 3086 3085 3086 3086 3094 3103 3111 3084 3102 3107 3107 3105 3105 3104 3104 3102
3081 3077 3074 3070 3066 3061 3057 3055 3049 3045 3042 3039 3037 3035 3034 3036 3035 3037 3037 3039 3042 3047 3054 3058 3065 3068 3070 3071 3063 3072 3079 3072 3068 3091 3097 3098 3091 3092 3096 3098 3096 3096 3095 3093 3095
3080 3077 3073 3067 3063 3057 3056 3052 3050 3043 3039 3037 3035 3030 3030 3031 3031 3036 3038 3040 3041 3044 3046 3051 3056 3047 3035 3054 3063 3069 3070 3069 3074 3086 3092 3086 3086 3086 3086 3089 3090 3089 3089 3087 3087
3080 3075 3069 3064 3060 3056 3050 3046 3046 3042 3027 3029 3023 3018 3019 3026 3024 3027 3033 3035 3039 3040 3043 3047 3036 3031 3051 3057 3063 3066 3064 3062 3072 3081 3085 3079 3079 3080 3077 3078 3080 3080 3079 3080 3080
3077 3072 3067 3062 3059 3054 3048 3046 3042 3036 3028 3017 3016 3012 3008 3015 3016 3021 3027 3029 3031 3034 3038 3037 3027 3040 3046 3053 3057 3055 3057 3061 3066 3077 3074 3073 3069 3068 3067 3068 3071 3072 3072 3072 3070
3075 3070 3066 3063 3060 3052 3048 3043 3038 3034 3027 3020 3013 3014 3011 3010 3013 3015 3019 3025 3026 3027 3033 3028 3029 3032 3040 3044 3050 3046 3057 3061 3067 3072 3063 3073 3063 3057 3059 3059 3062 3063 3064 3063 3063
3074 3069 3064 3058 3056 3051 3047 3041 3036 3034 3032 3025 3018 3017 3014 3016 3015 3012 3016 3019 3020 3023 3028 3014 3022 3029 3032 3035 3045 3036 3053 3057 3062 3064 3064 3062 3063 3034 3053 3052 3054 3055 3056 3055 3055
3073 3068 3064 3060 3056 3050 3044 3040 3036 3036 3033 3026 3023 3022 3017 3015 3014 3011 3012 3015 3016 3019 3018 3017 3022 3025 3023 3030 3037 3043 3048 3053 3056 3058 3057 3045 3055 3017 3042 3045 3046 3047 3048 3047 3047
3071 3067 3062 3059 3055 3048 3045 3039 3039 3037 3036 3030 3026 3021 3019 3014 3011 3012 3012 3014 3015 3015 3013 3014 3016 3019 3021 3024 3027 3034 3042 3046 3049 3048 3031 3042 3043 3027 3033 3037 3037 3041 3041 3042 3041
3069 3065 3061 3057 3053 3049 3045 3041 3040 3037 3034 3030 3027 3024 3022 3017 3012 3009 3008 3009 3011 3011 3009 3009 3011 3013 3016 3018 3023 3024 3032 3036 3038 3034 3027 3040 3027 3020 3023 3029 3032 3035 3037 3036 3035
3066 3062 3059 3055 3053 3050 3046 3042 3041 3038 3031 3029 3024 3020 3021 3018 3015 3011 3009 3007 3007 3007 3008 3007 3006 3007 3008 3011 3019 3017 3019 3022 3031 3030 3032 3028 3024 3024 3021 3023 3026 3029 3032 3031 3032
3065 3058 3058 3055 3052 3048 3046 3044 3042 3037 3033 3028 3024 3021 3017 3017 3014 3011 3008 3007 3007 3008 3007 3008 3003 3003 3003 3004 3002 3009 3015 3024 3024 3031 3032 3019 3021 3016 3014 3016 3019 3024 3026 3027 3030
3062 3056 3055 3054 3051 3047 3045 3042 3039 3036 3032 3028 3017 3018 3016 3015 3014 3013 3013 3010 3006 3006 3006 3006 3005 2997 3000 3000 3003 3007 3008 3014 3019 3023 3023 3024 3017 3011 3007 3012 3014 3020 3021 3024 3028
3061 3057 3055 3053 3050 3046 3044 3041 3038 3032 3030 3025 3021 3017 3016 3013 3009 3010 3008 3007 3004 3005 3002 3002 2999 2993 2995 2993 2998 2998 2999 3009 3014 3013 3016 3018 3008 3008 3007 3008 3010 3015 3019 3022 3026
3063 3058 3056 3053 3049 3044 3042 3039 3035 3031 3028 3024 3021 3018 3014 3012 3011 3008 3006 3004 3003 3001 2999 2999 2997 2995 2988 2988 2992 2993 2995 3001 3007 3013 3010 3014 3005 3008 3009 3009 3010 3012 3016 3020 3024
3062 3058 3056 3052 3048 3044 3039 3036 3032 3030 3027 3024 3019 3016 3013 3008 3008 3006 3002 3001 2999 2994 2997 2996 2994 2995 2993 2984 2991 2987 2986 2990 2997 3001 3002 3003 3000 3007 3008 3008 3007 3011 3014 3019 3022
3062 3060 3055 3049 3044 3041 3039 3034 3029 3026 3024 3020 3014 3014 3012 3006 3002 3002 2999 2998 2997 2991 2994 2993 2991 2990 2986 2983 2985 2983 2983 2984 2986 2991 2993 2998 3001 3005 3005 3005 3007 3010 3014 3016 3020
3061 3057 3052 3048 3043 3039 3037 3032 3027 3021 3020 3015 3013 3009 3006 3002 3000 2994 2995 2995 2994 2993 2993 2990 2987 2985 2978 2978 2982 2979 2978 2979 2979 2981 2986 2993 2998 3004 3006 3004 3007 3010 3012 3016 3019
3059 3057 3051 3046 3041 3038 3035 3030 3025 3020 3016 3014 3010 3005 3000 2996 2991 2986 2986 2985 2987 2988 2989 2990 2985 2984 2978 2975 2978 2981 2974 2975 2978 2980 2980 2988 2991 3000 3002 3005 3005 3010 3013 3016 3019